RH
100 100 100 100 91 81 68 77 54 50 49 60 45 42 41 53 100 100 100 84 57 18 8 8 9 10 11 12 13 16 12 8 8 7 7 7 7 8 8 7 6 7 7 7 8
100 100 100 92 84 60 72 75 62 55 54 63 61 59 55 77 100 100 100 77 53 14 9 8 10 11 11 14 14 17 17 11 9 9 8 8 8 8 7 7 7 8 8 8 9
100 100 100 85 68 58 61 77 56 50 62 87 81 78 76 89 100 100 92 68 45 15 9 8 11 12 12 15 16 16 20 16 11 10 9 9 8 8 8 8 8 8 9 10 11
100 92 67 65 73 94 82 67 60 79 91 99 100 75 78 99 100 100 87 67 43 17 9 9 12 12 14 16 17 17 21 22 14 13 12 11 11 10 10 11 11 12 13 13 13
81 73 92 100 100 96 89 79 77 78 83 100 100 72 98 100 100 100 83 63 50 18 10 10 13 13 16 17 16 17 21 26 20 17 16 14 12 12 13 14 15 15 15 15 17
87 100 100 100 100 96 92 68 72 72 97 100 96 99 100 100 100 100 81 69 52 15 11 11 12 12 13 16 16 18 20 26 23 19 18 16 16 17 19 20 21 24 22 22 23
100 100 97 82 100 100 76 58 70 72 100 100 100 100 100 100 98 94 75 65 47 16 12 13 12 11 11 14 17 19 20 21 26 20 21 19 19 21 23 26 27 27 26 26 29
93 100 100 99 86 74 73 58 65 94 95 100 100 100 100 99 96 86 75 65 48 16 13 12 14 14 12 12 14 18 19 18 21 26 23 26 19 19 20 21 23 26 27 28 32
81 77 80 90 97 100 89 78 72 76 100 100 96 100 100 100 96 79 74 79 41 16 14 14 14 15 14 13 12 12 18 18 20 23 25 30 31 31 30 27 26 27 30 44 43
100 85 91 100 72 58 62 72 100 100 100 100 100 100 100 100 88 79 80 82 46 17 16 16 15 15 16 15 13 13 12 16 21 24 25 26 27 30 35 42 47 49 47 48 42
76 100 98 83 78 99 87 73 100 98 92 100 100 100 100 96 86 72 74 86 41 19 17 18 17 18 17 16 16 14 14 13 17 22 26 27 27 28 32 47 64 56 48 52 40
100 100 100 94 97 86 93 100 100 100 100 100 100 100 100 93 81 58 74 93 54 21 18 20 19 20 20 20 19 18 17 16 19 22 24 26 29 34 38 52 72 65 73 70 55
100 100 100 94 100 100 100 100 100 100 99 97 100 100 100 91 71 53 73 100 89 39 22 21 20 20 21 22 22 22 22 21 22 22 23 26 29 32 40 56 70 87 100 100 89
100 100 95 97 100 100 100 97 94 96 96 96 100 100 99 79 66 69 98 100 95 64 28 25 20 22 22 22 22 23 24 24 23 22 24 26 29 34 53 67 71 73 96 100 100
85 78 87 82 88 100 94 100 100 100 97 100 100 100 100 70 49 49 65 61 99 97 80 36 21 23 22 23 24 24 24 24 24 23 22 25 32 53 69 70 76 75 82 100 100
97 97 94 89 92 93 100 95 100 100 100 100 100 100 96 74 51 65 82 98 88 93 100 84 34 24 30 28 27 28 28 29 49 68 50 53 68 82 74 77 81 85 83 85 92
95 95 97 96 100 100 100 100 100 100 100 100 100 100 81 59 54 59 92 100 91 78 88 91 80 48 52 53 37 37 34 39 71 84 85 78 90 86 83 90 84 96 96 82 90
100 100 100 100 100 100 100 100 100 100 100 100 100 99 90 79 77 100 92 95 94 84 95 100 100 99 85 76 71 68 69 69 82 90 88 95 100 100 97 90 100 100 100 100 83
100 100 100 100 100 100 100 100 100 100 100 100 100 100 92 72 78 87 88 88 82 100 100 100 100 98 100 100 97 91 89 89 88 89 94 100 100 100 90 74 94 97 96 71 69
100 94 93 88 96 100 100 99 100 100 100 100 100 100 99 84 71 57 58 68 84 90 98 98 99 100 100 100 100 100 100 98 87 65 85 99 99 100 91 72 71 89 100 81 80
99 93 91 90 89 89 99 93 99 88 93 100 100 100 100 100 83 66 55 76 68 76 87 92 98 100 100 100 100 100 100 99 80 77 67 84 99 100 83 68 73 84 100 100 90
100 100 100 100 100 100 100 95 90 92 83 89 93 88 90 98 100 95 77 61 57 57 61 62 63 94 99 96 100 99 100 100 95 100 91 90 95 100 84 100 84 87 100 100 100
95 100 100 100 100 100 100 100 100 98 85 91 86 69 69 76 84 100 100 91 83 66 58 58 55 71 86 96 89 87 85 86 88 93 100 72 99 100 100 100 87 100 100 100 100
60 72 88 87 89 98 97 99 92 88 85 88 95 83 67 58 80 92 99 100 100 93 79 69 82 74 70 77 73 73 85 96 95 100 93 90 77 100 100 100 80 96 88 100 98
43 55 57 55 66 78 80 79 75 77 69 84 86 67 68 100 96 81 87 99 100 100 100 97 98 100 100 100 95 99 100 100 100 97 79 92 77 100 100 99 99 83 90 97 94
50 53 52 45 45 55 62 66 56 56 58 68 72 70 67 75 91 92 66 75 92 100 100 100 100 100 100 100 91 74 100 100 96 100 100 100 95 100 100 100 91 93 97 99 100
52 46 48 53 46 47 54 57 57 48 47 57 71 72 68 67 71 63 72 78 88 100 100 93 95 98 88 100 100 82 100 100 100 100 100 99 100 100 100 100 99 100 94 96 100
Wind_Speed
56 47 49 51 51 44 44 44 43 45 44 47 50 54 54 59 59 52 40 30 22 22 20 21 23 23 25 27 28 28 27 25 21 14 12 11 10 10 12 16 16 16 19 20 21
49 47 51 52 48 47 46 47 45 46 47 50 51 52 55 56 48 43 36 26 21 20 20 20 20 22 25 24 26 26 26 23 19 14 12 12 11 12 14 16 16 18 19 22 23
52 51 47 47 48 48 48 46 49 47 51 52 52 55 53 45 48 40 35 23 20 19 20 19 18 21 24 22 25 26 26 22 18 15 13 14 13 13 14 16 18 20 23 24 24
48 52 52 50 49 47 46 49 48 48 54 50 50 53 55 47 44 36 28 22 20 19 19 17 17 21 24 21 22 26 25 22 18 17 16 15 15 14 15 17 18 21 22 22 22
55 50 47 45 46 46 48 49 49 51 54 50 54 55 49 44 40 32 25 22 21 20 20 17 18 21 22 22 21 25 24 22 17 15 15 14 15 14 15 16 16 17 20 22 23
51 51 47 45 48 49 47 50 52 52 53 50 55 54 46 42 37 30 24 23 21 20 20 18 19 20 23 22 22 24 24 22 17 13 14 14 14 14 15 15 17 19 19 20 23
49 48 47 50 47 48 50 53 51 52 51 55 51 48 46 43 35 27 24 23 22 21 20 21 20 22 24 22 23 22 24 22 20 15 15 16 16 16 18 19 22 23 24 26 28
47 47 48 50 52 51 48 49 50 50 51 48 49 45 42 40 34 27 25 25 23 21 22 22 23 24 25 24 22 22 24 24 24 21 20 21 20 18 19 21 24 25 27 29 31
48 43 46 45 46 43 44 48 46 47 47 49 45 42 43 37 31 28 27 25 25 22 23 24 25 26 27 28 26 25 25 26 25 26 25 25 26 28 28 28 28 30 32 34 34
38 39 44 42 46 48 46 43 43 45 46 45 41 40 40 37 28 27 29 27 28 24 24 27 27 30 30 31 31 31 28 27 28 27 26 28 31 32 34 35 35 34 34 35 36
43 43 44 43 41 41 42 45 46 45 45 43 36 40 41 32 28 28 31 29 31 27 27 28 27 28 30 32 33 32 31 32 31 30 29 30 33 35 37 37 36 36 37 38 38
45 46 49 44 41 40 45 45 47 42 40 36 38 39 37 31 29 30 32 32 31 30 29 30 29 28 29 31 34 34 33 33 33 33 32 33 35 37 39 40 39 38 41 41 42
45 45 45 41 43 45 46 46 45 41 40 37 38 38 35 32 30 31 35 34 33 32 33 32 32 30 30 31 33 34 34 35 35 35 35 36 37 39 39 40 41 41 44 45 44
44 43 44 44 46 47 49 46 40 38 37 38 38 37 35 31 33 33 34 34 35 36 37 36 35 33 32 32 34 34 34 35 35 37 38 39 40 41 41 42 42 44 44 44 43
45 44 45 47 49 49 47 40 39 35 35 37 39 39 37 33 33 33 34 37 38 39 39 37 37 37 36 35 35 36 35 35 37 38 39 40 41 42 44 44 44 43 42 44 43
49 49 48 48 44 40 39 40 35 34 37 39 40 38 36 34 36 34 35 34 35 38 40 38 39 40 40 39 38 38 37 38 39 40 40 41 42 47 44 45 46 46 45 45 46
45 44 44 42 38 36 35 35 35 37 39 41 41 39 36 35 33 33 36 39 39 37 39 42 42 43 44 43 42 42 40 41 42 42 42 43 43 46 45 46 46 47 46 47 49
38 41 36 37 36 36 34 36 38 39 41 43 42 40 40 39 36 37 39 39 41 42 44 48 47 47 47 45 45 45 45 46 46 46 48 49 47 51 47 43 44 46 45 49 54
36 36 33 34 37 39 38 36 38 40 39 40 43 42 42 43 42 42 43 44 41 40 42 43 45 42 45 47 48 50 49 49 46 41 42 48 47 51 45 43 46 49 50 55 56
41 38 39 39 36 36 35 37 37 38 39 40 43 44 44 44 46 46 43 44 44 40 38 37 37 43 42 43 45 44 44 44 42 41 42 43 46 56 53 52 49 51 54 57 57
41 41 40 39 39 40 40 38 36 39 39 40 43 44 46 46 45 45 47 48 48 48 46 42 39 43 43 42 44 44 44 46 48 48 46 43 44 63 58 55 54 54 56 60 61
46 43 42 40 42 41 41 43 45 45 42 40 42 43 45 47 50 49 50 52 51 52 52 53 50 50 53 52 51 51 51 52 52 52 51 50 41 60 60 58 58 57 59 62 64
49 48 47 50 48 48 46 45 44 49 47 47 48 50 50 49 49 52 55 56 56 55 52 52 49 52 52 54 54 53 53 54 55 55 53 51 45 60 64 60 60 59 61 62 65
53 54 53 52 54 54 53 52 54 53 51 51 51 54 54 52 52 51 55 56 59 60 58 55 55 58 56 59 58 57 59 60 60 58 58 56 52 60 64 64 60 60 62 64 62
59 58 60 58 57 58 58 58 59 58 56 57 59 61 56 55 58 57 56 55 57 58 60 61 60 62 62 65 62 60 62 67 65 66 66 58 58 61 63 64 63 66 68 62 62
61 61 62 63 63 62 61 61 61 61 62 64 65 68 64 63 64 62 59 60 60 62 64 62 58 60 60 66 68 61 62 67 69 69 69 66 57 71 67 66 64 67 67 63 65
56 64 65 66 68 67 67 67 66 66 66 66 68 69 70 70 67 68 66 65 63 65 69 69 69 70 64 72 72 65 71 75 73 71 74 72 66 67 70 68 65 70 70 70 70
Wind_Direction
241 245 251 257 262 269 273 271 276 283 290 299 306 310 313 318 316 317 311 314 318 316 328 332 337 342 344 348 353 355 357 360 3 14 22 17 1 334 311 317 321 323 317 319 319
240 243 247 252 260 266 268 271 273 280 288 296 302 309 312 315 314 312 312 312 315 313 322 331 339 342 340 343 353 358 358 359 358 2 358 350 340 326 325 326 323 319 323 326 323
233 235 241 252 257 263 263 263 273 279 287 292 298 301 306 309 310 303 308 310 311 311 315 329 338 337 334 340 347 352 355 351 352 352 343 337 335 337 340 333 334 334 334 335 329
233 244 251 251 253 256 259 264 271 282 289 290 295 300 305 305 306 301 299 307 306 306 313 326 332 334 334 338 342 350 351 346 348 348 347 347 351 348 355 353 346 343 341 338 334
234 240 242 247 252 252 258 263 274 282 289 285 294 300 300 302 298 295 299 305 302 303 309 319 325 330 326 332 336 348 345 343 338 345 346 349 347 353 357 356 358 353 348 344 342
236 241 244 246 248 253 259 270 277 284 284 282 294 296 294 297 291 292 300 301 295 299 304 310 314 321 324 327 331 338 339 341 337 344 350 353 354 350 348 343 338 335 334 334 333
237 239 243 248 244 254 265 270 279 282 277 285 289 290 292 293 284 288 293 292 288 292 295 300 305 310 317 321 328 330 336 333 338 333 337 331 334 333 330 329 331 330 330 329 329
233 236 238 247 258 266 272 275 277 276 281 280 284 287 288 285 280 284 286 286 280 284 289 296 298 300 309 315 320 321 331 329 328 328 328 329 322 320 318 320 322 322 321 322 322
240 245 247 246 248 256 265 272 274 277 275 277 278 284 284 279 277 283 284 283 277 280 286 290 294 293 298 306 308 314 318 323 322 322 320 321 323 324 322 321 317 318 320 324 319
219 232 244 246 258 269 267 269 267 269 270 274 277 282 277 272 277 282 283 279 274 277 282 285 289 290 294 299 302 305 307 311 311 314 316 317 318 319 319 319 321 318 317 320 317
239 239 239 254 258 256 257 260 264 268 272 272 275 276 274 271 277 280 279 276 275 276 278 282 287 291 292 295 298 301 301 303 307 311 312 313 315 318 319 319 315 312 312 314 315
232 236 244 249 252 258 261 260 262 265 268 271 274 272 270 273 278 283 281 273 273 275 275 280 284 291 293 293 292 295 299 301 304 304 307 312 316 318 316 318 317 310 311 312 313
237 241 244 250 250 255 256 260 262 265 267 271 271 268 263 271 275 280 280 275 272 274 275 277 280 287 292 292 294 295 294 296 299 300 303 307 312 313 313 315 316 313 311 311 312
236 245 247 252 252 254 259 259 259 262 266 269 268 262 261 270 273 277 280 285 278 274 277 280 280 284 290 291 292 291 292 295 297 298 299 303 306 308 309 310 313 314 315 315 310
250 253 253 254 255 258 259 257 259 260 264 266 264 264 262 271 273 274 277 284 285 276 280 281 279 283 287 289 292 293 293 294 296 297 298 300 303 304 306 308 311 310 314 316 313
250 252 254 258 260 260 258 258 256 261 265 261 262 261 263 268 271 274 280 285 287 286 285 281 279 282 284 286 290 293 295 296 298 300 300 301 303 302 305 308 311 311 313 312 311
254 255 256 257 254 254 256 254 259 260 264 265 263 259 261 263 269 272 279 281 281 289 292 287 281 278 279 284 287 290 292 294 297 299 299 301 303 301 305 308 310 310 310 310 309
250 247 246 246 249 253 255 257 259 260 264 266 261 259 260 261 264 269 271 274 279 287 294 291 284 282 283 283 287 290 291 293 296 299 299 300 300 300 301 307 311 310 313 312 311
239 244 245 246 246 249 250 255 260 260 266 263 263 263 265 265 263 265 269 274 279 289 289 289 291 292 286 284 286 288 292 294 298 301 303 304 303 299 299 303 306 308 311 314 313
248 247 247 246 248 249 252 254 255 260 264 267 265 264 267 268 270 269 271 270 277 277 285 287 291 291 292 291 292 294 296 296 296 297 299 301 301 297 300 304 307 305 311 314 313
251 252 251 251 251 251 252 256 257 258 258 262 264 265 268 268 271 272 269 271 274 276 280 282 285 289 291 292 292 294 294 293 294 295 295 297 299 295 299 303 304 304 308 310 312
253 253 251 250 252 255 258 258 259 262 263 265 268 269 270 271 272 271 269 272 274 276 277 277 280 283 285 284 285 288 290 291 293 294 297 296 301 293 298 299 301 303 304 306 310
252 253 254 252 255 255 257 259 261 264 263 269 271 273 273 276 271 272 271 272 275 278 281 283 282 283 286 285 285 286 287 288 290 290 292 294 295 293 297 298 301 304 302 305 307
253 254 252 253 253 254 257 261 260 263 266 264 267 270 272 276 275 274 275 277 276 276 277 278 281 282 284 284 286 289 292 292 292 292 289 295 291 294 294 294 299 298 298 301 301
251 251 254 256 256 255 255 258 261 261 263 263 264 267 268 269 270 272 275 279 282 284 281 278 276 278 280 282 286 289 291 291 290 291 292 288 294 290 288 293 296 297 297 298 299
255 256 257 257 254 255 257 260 262 264 264 266 266 267 266 267 268 272 272 275 276 279 282 282 282 282 281 282 284 288 293 288 291 291 292 287 289 285 288 289 294 293 292 295 296
259 260 256 260 260 258 260 258 260 261 261 263 266 268 270 269 271 271 269 271 273 277 278 278 278 277 278 280 282 290 284 288 287 288 290 288 286 284 285 287 291 291 293 294 293